When you browse on this site, cookies collect data to enhance your experience and personalize the content and advertising you see.
Visit our Privacy Policy to learn more. By continuing to use the site, you agree to this use of cookies and data.
  • In Hungary
  • List of Countries
  • For 7 days
  • Water Temperature
  • Satellite Maps
  • Weather Map
  • News
  • Weather Widgets
  • user-avatar
    Login

    Hourly Weather Newry

    Today, 19 December, Wednesday

    Time Temperature Precipitation Wind Pressure Humidity
    00:00 +3°C° 0 mm 4 mps 737 mmHg 93%
    01:00 +2°C° 0 mm 5 mps 737 mmHg 92%
    02:00 +2°C° 0 mm 5 mps 737 mmHg 91%
    03:00 +2°C° 0 mm 5 mps 737 mmHg 91%
    04:00 +2°C° 0 mm 5 mps 737 mmHg 90%
    05:00 +2°C° 0 mm 5 mps 737 mmHg 90%
    06:00 +2°C° 0 mm 5 mps 737 mmHg 90%
    07:00 +2°C° 0 mm 6 mps 737 mmHg 89%
    08:00 +2°C° 0 mm 6 mps 737 mmHg 89%
    09:00 +2°C° 0 mm 6 mps 737 mmHg 88%
    10:00 +3°C° 0 mm 6 mps 737 mmHg 87%
    11:00 +4°C° 0 mm 7 mps 737 mmHg 86%
    12:00 +4°C° 0 mm 7 mps 736 mmHg 84%
    13:00 +4°C° 0.1 mm 6 mps 736 mmHg 85%
    14:00 +5°C° 0.1 mm 6 mps 736 mmHg 86%
    15:00 +6°C° 0.1 mm 5 mps 735 mmHg 87%
    16:00 +5°C° 0 mm 5 mps 735 mmHg 88%
    17:00 +5°C° 0 mm 5 mps 735 mmHg 90%
    18:00 +3°C° 0 mm 5 mps 735 mmHg 91%
    19:00 +3°C° 0 mm 5 mps 735 mmHg 92%
    20:00 +3°C° 0 mm 5 mps 735 mmHg 92%
    21:00 +3°C° 0 mm 5 mps 735 mmHg 92%
    22:00 +3°C° 0.1 mm 6 mps 736 mmHg 92%
    23:00 +4°C° 0.1 mm 6 mps 736 mmHg 91%

    Tomorrow, 20 December, Thursday

    Time Temperature Precipitation Wind Pressure Humidity
    00:00 +4°C° 0.1 mm 6 mps 736 mmHg 91%
    01:00 +4°C° 0 mm 7 mps 737 mmHg 90%
    02:00 +4°C° 0 mm 7 mps 737 mmHg 89%
    03:00 +4°C° 0 mm 7 mps 738 mmHg 88%
    04:00 +4°C° 0 mm 7 mps 738 mmHg 88%
    05:00 +3°C° 0 mm 7 mps 738 mmHg 89%
    06:00 +3°C° 0 mm 6 mps 739 mmHg 89%
    07:00 +3°C° 0.1 mm 6 mps 739 mmHg 89%
    08:00 +3°C° 0.1 mm 6 mps 739 mmHg 88%
    09:00 +4°C° 0.1 mm 6 mps 740 mmHg 88%
    10:00 +4°C° 0.1 mm 7 mps 740 mmHg 86%
    11:00 +4°C° 0.1 mm 7 mps 740 mmHg 84%
    12:00 +5°C° 0.1 mm 7 mps 740 mmHg 82%
    13:00 +5°C° 0 mm 7 mps 740 mmHg 83%
    14:00 +5°C° 0 mm 7 mps 740 mmHg 83%
    15:00 +5°C° 0 mm 6 mps 740 mmHg 83%
    16:00 +4°C° 0 mm 6 mps 740 mmHg 85%
    17:00 +4°C° 0 mm 6 mps 740 mmHg 87%
    18:00 +3°C° 0 mm 6 mps 740 mmHg 88%
    19:00 +3°C° 0 mm 6 mps 740 mmHg 89%
    20:00 +3°C° 0 mm 6 mps 739 mmHg 90%
    21:00 +3°C° 0 mm 5 mps 739 mmHg 91%
    22:00 +3°C° 0.2 mm 5 mps 738 mmHg 92%
    23:00 +4°C° 0.2 mm 4 mps 737 mmHg 93%

    Day after tomorrow, 21 December, Friday

    Time Temperature Precipitation Wind Pressure Humidity
    00:00 +4°C° 0.2 mm 3 mps 737 mmHg 94%
    01:00 +4°C° 1.4 mm 3 mps 735 mmHg 95%
    02:00 +4°C° 1.4 mm 4 mps 734 mmHg 96%
    03:00 +5°C° 1.4 mm 4 mps 733 mmHg 96%
    04:00 +5°C° 0.8 mm 5 mps 733 mmHg 94%
    05:00 +5°C° 0.8 mm 6 mps 733 mmHg 93%
    06:00 +5°C° 0.8 mm 7 mps 733 mmHg 91%
    07:00 +5°C° 0.1 mm 8 mps 734 mmHg 88%
    08:00 +5°C° 0.1 mm 9 mps 734 mmHg 85%
    09:00 +5°C° 0.1 mm 10 mps 734 mmHg 82%
    10:00 +6°C° 0 mm 10 mps 735 mmHg 80%
    11:00 +6°C° 0 mm 10 mps 735 mmHg 77%
    12:00 +6°C° 0 mm 10 mps 736 mmHg 75%
    13:00 +6°C° 0 mm 10 mps 736 mmHg 76%
    14:00 +6°C° 0 mm 9 mps 737 mmHg 77%
    15:00 +6°C° 0 mm 8 mps 737 mmHg 78%
    16:00 +5°C° 0 mm 7 mps 737 mmHg 80%
    17:00 +5°C° 0 mm 7 mps 737 mmHg 83%
    18:00 +4°C° 0 mm 6 mps 737 mmHg 86%
    19:00 +4°C° 0.1 mm 6 mps 737 mmHg 85%
    20:00 +4°C° 0.1 mm 7 mps 737 mmHg 84%
    21:00 +4°C° 0.1 mm 8 mps 737 mmHg 83%
    22:00 +5°C° 0.2 mm 9 mps 738 mmHg 83%
    23:00 +5°C° 0.2 mm 10 mps 738 mmHg 83%

    22 December, Saturday

    Time Temperature Precipitation Wind Pressure Humidity
    00:00 +6°C° 0.2 mm 11 mps 739 mmHg 82%
    01:00 +5°C° 0 mm 10 mps 740 mmHg 84%
    02:00 +5°C° 0 mm 9 mps 741 mmHg 86%
    03:00 +4°C° 0 mm 8 mps 742 mmHg 87%
    04:00 +4°C° 0 mm 7 mps 743 mmHg 87%
    05:00 +4°C° 0 mm 7 mps 743 mmHg 86%
    06:00 +4°C° 0 mm 7 mps 744 mmHg 86%
    07:00 +4°C° 0.1 mm 7 mps 745 mmHg 85%
    08:00 +4°C° 0.1 mm 7 mps 746 mmHg 84%
    09:00 +4°C° 0.1 mm 7 mps 746 mmHg 84%
    10:00 +4°C° 0 mm 7 mps 747 mmHg 82%
    11:00 +5°C° 0 mm 7 mps 747 mmHg 80%
    12:00 +5°C° 0 mm 7 mps 748 mmHg 78%
    13:00 +5°C° 0 mm 7 mps 748 mmHg 79%
    14:00 +5°C° 0 mm 7 mps 749 mmHg 79%
    15:00 +5°C° 0 mm 6 mps 749 mmHg 80%
    16:00 +4°C° 0 mm 6 mps 749 mmHg 82%
    17:00 +4°C° 0 mm 6 mps 750 mmHg 84%
    18:00 +3°C° 0 mm 6 mps 750 mmHg 86%
    19:00 +3°C° 0 mm 6 mps 751 mmHg 88%
    20:00 +3°C° 0 mm 6 mps 752 mmHg 89%
    21:00 +2°C° 0 mm 5 mps 752 mmHg 90%
    22:00 +2°C° 0 mm 5 mps 752 mmHg 91%
    23:00 +2°C° 0 mm 5 mps 753 mmHg 92%

    23 December, Sunday

    Time Temperature Precipitation Wind Pressure Humidity
    00:00 +1°C° 0 mm 5 mps 753 mmHg 93%
    01:00 +1°C° 0 mm 4 mps 753 mmHg 94%
    02:00 +1°C° 0 mm 4 mps 754 mmHg 94%
    03:00 +1°C° 0 mm 4 mps 754 mmHg 95%
    04:00 +2°C° 0 mm 3 mps 754 mmHg 95%
    05:00 +3°C° 0 mm 2 mps 754 mmHg 95%
    06:00 +2°C° 0 mm 2 mps 754 mmHg 95%
    07:00 +3°C° 0 mm 2 mps 754 mmHg 95%
    08:00 +3°C° 0 mm 2 mps 755 mmHg 95%
    09:00 +4°C° 0 mm 1 mps 755 mmHg 94%
    10:00 +4°C° 0 mm 2 mps 755 mmHg 93%
    11:00 +5°C° 0 mm 2 mps 755 mmHg 91%
    12:00 +6°C° 0 mm 2 mps 755 mmHg 89%
    13:00 +6°C° 0 mm 2 mps 755 mmHg 90%
    14:00 +5°C° 0 mm 3 mps 755 mmHg 91%
    15:00 +5°C° 0 mm 3 mps 754 mmHg 92%
    16:00 +6°C° 0.1 mm 4 mps 754 mmHg 93%
    17:00 +6°C° 0.1 mm 4 mps 754 mmHg 93%
    18:00 +6°C° 0.1 mm 5 mps 754 mmHg 94%
    19:00 +6°C° 0.3 mm 5 mps 754 mmHg 93%
    20:00 +6°C° 0.3 mm 5 mps 754 mmHg 92%
    21:00 +5°C° 0.3 mm 6 mps 754 mmHg 91%
    22:00 +5°C° 0.6 mm 6 mps 754 mmHg 92%
    23:00 +5°C° 0.6 mm 7 mps 753 mmHg 92%

    24 December, Monday

    Time Temperature Precipitation Wind Pressure Humidity
    00:00 +5°C° 0.6 mm 7 mps 753 mmHg 92%
    01:00 +5°C° 0.5 mm 7 mps 753 mmHg 93%
    02:00 +5°C° 0.5 mm 6 mps 753 mmHg 94%
    03:00 +6°C° 0.5 mm 5 mps 753 mmHg 95%
    04:00 +6°C° 0.1 mm 4 mps 753 mmHg 96%
    05:00 +7°C° 0.1 mm 3 mps 753 mmHg 96%
    06:00 +7°C° 0.1 mm 2 mps 753 mmHg 97%
    07:00 +7°C° 0 mm 2 mps 753 mmHg 97%
    08:00 +8°C° 0 mm 1 mps 754 mmHg 97%
    09:00 +8°C° 0 mm 1 mps 754 mmHg 97%
    10:00 +9°C° 0.1 mm 1 mps 754 mmHg 97%
    11:00 +9°C° 0.1 mm 1 mps 754 mmHg 97%
    12:00 +10°C° 0.1 mm 1 mps 755 mmHg 97%
    13:00 +9°C° 0.1 mm 2 mps 755 mmHg 97%
    14:00 +9°C° 0.1 mm 2 mps 755 mmHg 97%
    15:00 +10°C° 0.1 mm 2 mps 755 mmHg 97%
    16:00 +10°C° 0 mm 2 mps 755 mmHg 97%
    17:00 +10°C° 0 mm 2 mps 755 mmHg 97%
    18:00 +10°C° 0 mm 2 mps 755 mmHg 97%
    19:00 +9°C° 0 mm 2 mps 756 mmHg 97%
    20:00 +9°C° 0 mm 2 mps 756 mmHg 97%
    21:00 +9°C° 0 mm 3 mps 756 mmHg 97%
    22:00 +9°C° 0 mm 3 mps 756 mmHg 97%
    23:00 +10°C° 0 mm 3 mps 756 mmHg 97%
    Show more